Satellite-Ground Cal/Val Site Overpasses Predictions

Prediction of Satellite NPP Overpassing Cal/Val Site: Antarctic Dome C

Ground Cal/Val Site Location: Latitude: -75.10, Longitude: 123.35; Satellite-Ground Site NADIR distance within 100 km.

Table of predicted overpasses for the next 14.0 days since TLE Epoch: 11/7/2020
Interval Starting Time Ending Time Minimum Distance Time Minimum Distance (km)
1 11/07/2020 07:37:38 11/07/2020 07:38:05 11/07/2020 07:37:52 37.18
2 11/08/2020 07:18:51 11/08/2020 07:19:11 11/08/2020 07:19:01 73.00
3 11/10/2020 15:01:04 11/10/2020 15:01:28 11/10/2020 15:01:16 56.17
4 11/11/2020 14:42:14 11/11/2020 14:42:39 11/11/2020 14:42:27 53.05
5 11/12/2020 07:43:54 11/12/2020 07:44:14 11/12/2020 07:44:04 72.24
6 11/13/2020 07:25:01 11/13/2020 07:25:28 11/13/2020 07:25:15 35.76
7 11/15/2020 15:07:25 11/15/2020 15:07:35 11/15/2020 15:07:30 93.80
8 11/16/2020 14:48:25 11/16/2020 14:48:53 11/16/2020 14:48:39 17.40
